User: anonymous   Login
Location: Unspecified
(0.0000°N, 0.0000°E)
Time: 00:47:01
(UTC+00:00)
Language:

STARLINK-34951 - Orbit

View from above orbital plane
View from above orbital plane
View from above satellite
View from above satellite

Ground track
Ground track

The orbit is defined by the following mean orbital elements,

1 65293U          26145.40748321 +.00000000 +00000-0 +11294-3 0 00005
2 65293  97.4517 197.8943 0001495 120.0574 240.0801 15.05656307    02
Epoch (UTC): 25 May 2026 09:46:46
Eccentricity: 0.0001495
inclination: 97.4517°
perigee height: 548 km
apogee height: 551 km
right ascension of ascending node: 197.8943°
argument of perigee: 120.0574°
revolutions per day: 15.05656307
mean anomaly at epoch: 240.0801°

The dashed part of the orbit path shows where the satellite is in the earth's shadow,  

DLR